Погода в Углянце

Россия / Воронежская область     51°49′08″N   39°34′56″E
темп.,
°C
ветер,
м/с
пор.,
м/с
влажн.,
%
обл.,
%
осадки,
мм/ч
давл.,
гПа
погр.,
м
16 июня, ср
ср1600:00+17сз229265 0.0 100921
03:00+16ссз229487 0.0 100916
06:00+18сз249283 0.1 1009119
09:00+23сз237383 0.1 1010552
12:00+26юз125980 1.8 10101069
15:00+23ссз468189 6.9 1011415
18:00+22с2585100 2.0 1012391
21:00+18ссв339317 2.6 101454
17 июня, чт
чт1700:00+17ссв24955 0.0 101571
03:00+16ссв38961 0.0 1016205
06:00+17ссв5119456 0.0 1017348
09:00+21св69730 0.0 1018682
12:00+23св68620 0.0 10191100
15:00+24св776016 0.0 10201409
18:00+21св69660 0.0 1021748
21:00+17св511780 0.0 1022336
18 июня, пт
пт1800:00+14св39870 0.0 1023169
03:00+12св37885 0.0 1025138
06:00+14св411811 0.0 1025318
09:00+19всв69620 0.0 1026703
12:00+22всв68520 0.0 10261312
15:00+22всв67520 0.0 10261572
18:00+21всв57641 0.0 1025971
21:00+16всв37850 0.0 1027127
19 июня, сб
сб1900:00+13в37850 0.0 1027117
03:00+11в35885 0.0 102868
06:00+13всв36835 0.0 1028170
09:00+19в466425 0.0 1028769
12:00+22в565357 0.0 10271177
15:00+23вюв56510 0.0 10261275
18:00+22в46630 0.0 1025888
21:00+16в34830 0.0 102662
20 июня, вс
вс2000:00+14в35900 0.0 102668
03:00+13в34910 0.0 102665
06:00+15в36850 0.0 1026161
09:00+21в46660 0.0 1026575
12:00+24вюв56530 0.0 10251188
15:00+25вюв5650100 0.0 10231277
18:00+24вюв3664100 0.0 1023532
21:00+20в3578100 0.0 102392